User: anonymous   Login
Location: Vancouver
(49.2500°N, 123.1330°W)
Time: 16:15:09
(UTC-08:00)
Language:

S-56A Canister/Altair - Orbit

View from above orbital plane
View from above orbital plane
View from above satellite
View from above satellite

Ground track
Ground track

The orbit data is extracted from the following two-line orbital elements,

1 00082U 61004B   15030.72250474  .00000107  00000-0  12342-3 0  7532
2 00082 038.8557 270.3407 1174784 324.4135 028.3439 12.25673199566691
Epoch (UTC): 30 January 2015 17:20:24
Eccentricity: 0.1174784
inclination: 38.8557°
perigee height: 634 km
apogee height: 2501 km
right ascension of ascending node: 270.3407°
argument of perigee: 324.4135°
revolutions per day: 12.25673199
mean anomaly at epoch: 28.3439°
orbit number at epoch: 56669

The dashed part of the orbit path shows where the satellite is in the earth's shadow,  

DLR